Time,TemperatureF,DewpointF,PressureIn,WindDirection,WindDirectionDegrees,WindSpeedMPH,WindSpeedGustMPH,Humidity,HourlyPrecipIn,Conditions,Clouds,dailyrainin,SoftwareType,DateUTC
2013-06-09 00:01:00,67.4,59.9,30.04,ENE,72,0.0,0.0,77,0.00,,,0.04,Wunderground v.1.15,2013-06-09 04:01:00,
2013-06-09 00:02:00,67.4,59.9,30.04,ENE,72,0.0,0.0,77,0.00,,,0.04,Wunderground v.1.15,2013-06-09 04:02:00,
2013-06-09 00:07:00,67.4,59.9,30.04,ENE,72,0.0,1.0,77,0.00,,,0.04,Wunderground v.1.15,2013-06-09 04:07:00,
2013-06-09 00:12:00,67.4,60.3,30.05,ENE,72,0.0,1.0,78,0.00,,,0.04,Wunderground v.1.15,2013-06-09 04:12:00,
2013-06-09 00:17:00,67.3,60.2,30.05,ENE,72,0.0,1.0,78,0.00,,,0.04,Wunderground v.1.15,2013-06-09 04:17:00,
2013-06-09 00:22:00,67.3,60.2,30.05,ENE,72,0.0,0.0,78,0.00,,,0.04,Wunderground v.1.15,2013-06-09 04:22:00,
2013-06-09 00:27:00,67.1,60.4,30.05,ENE,72,0.0,1.0,79,0.00,,,0.04,Wunderground v.1.15,2013-06-09 04:27:00,
2013-06-09 00:32:00,67.1,60.4,30.05,ENE,72,0.0,0.0,79,0.00,,,0.04,Wunderground v.1.15,2013-06-09 04:32:00,
2013-06-09 00:37:00,67.1,60.4,30.05,ENE,72,0.0,0.0,79,0.00,,,0.04,Wunderground v.1.15,2013-06-09 04:37:00,
2013-06-09 00:42:00,67.3,60.6,30.04,ENE,72,0.0,0.0,79,0.00,,,0.04,Wunderground v.1.15,2013-06-09 04:42:00,
2013-06-09 00:47:00,67.3,60.9,30.04,ENE,72,0.0,1.0,80,0.00,,,0.04,Wunderground v.1.15,2013-06-09 04:47:00,
2013-06-09 00:52:00,67.3,60.9,30.04,ENE,72,0.0,0.0,80,0.00,,,0.04,Wunderground v.1.15,2013-06-09 04:52:00,
2013-06-09 00:57:00,67.3,61.3,30.04,ENE,72,0.0,0.0,81,0.00,,,0.04,Wunderground v.1.15,2013-06-09 04:57:00,
2013-06-09 01:02:00,67.1,61.1,30.04,ENE,72,0.0,0.0,81,0.00,,,0.04,Wunderground v.1.15,2013-06-09 05:02:00,
2013-06-09 01:07:00,67.1,61.4,30.04,ENE,72,0.0,0.0,82,0.00,,,0.04,Wunderground v.1.15,2013-06-09 05:07:00,
2013-06-09 01:12:00,67.1,61.8,30.05,ENE,72,0.0,0.0,83,0.00,,,0.04,Wunderground v.1.15,2013-06-09 05:12:00,
2013-06-09 01:17:00,66.9,61.6,30.05,ENE,72,0.0,1.0,83,0.00,,,0.04,Wunderground v.1.15,2013-06-09 05:17:00,
2013-06-09 01:22:00,66.8,61.8,30.05,ENE,72,0.0,0.0,84,0.00,,,0.04,Wunderground v.1.15,2013-06-09 05:22:00,
2013-06-09 01:27:00,66.6,61.6,30.05,ENE,72,0.0,1.0,84,0.00,,,0.00,Wunderground v.1.15,2013-06-09 05:27:00,
2013-06-09 01:32:00,66.4,61.8,30.05,ENE,72,0.0,1.0,85,0.00,,,0.00,Wunderground v.1.15,2013-06-09 05:32:00,
2013-06-09 01:37:00,66.4,61.8,30.05,ENE,72,0.0,1.0,85,0.00,,,0.00,Wunderground v.1.15,2013-06-09 05:37:00,
2013-06-09 01:42:00,66.4,61.4,30.04,ENE,72,0.0,1.0,84,0.00,,,0.00,Wunderground v.1.15,2013-06-09 05:42:00,
2013-06-09 01:47:00,66.4,61.4,30.04,ENE,72,0.0,1.0,84,0.00,,,0.00,Wunderground v.1.15,2013-06-09 05:47:00,
2013-06-09 01:52:00,66.4,61.4,30.04,ENE,72,1.0,1.0,84,0.00,,,0.00,Wunderground v.1.15,2013-06-09 05:52:00,
2013-06-09 01:57:00,66.4,61.4,30.04,ENE,72,0.0,1.0,84,0.00,,,0.00,Wunderground v.1.15,2013-06-09 05:57:00,
2013-06-09 02:02:00,66.4,61.4,30.04,ENE,72,0.0,0.0,84,0.00,,,0.00,Wunderground v.1.15,2013-06-09 06:02:00,
2013-06-09 02:07:00,66.6,61.6,30.04,ENE,72,0.0,0.0,84,0.00,,,0.00,Wunderground v.1.15,2013-06-09 06:07:00,
2013-06-09 02:12:00,66.6,61.6,30.04,ENE,72,0.0,0.0,84,0.00,,,0.00,Wunderground v.1.15,2013-06-09 06:12:00,
2013-06-09 02:17:00,66.8,61.5,30.04,ENE,72,0.0,0.0,83,0.00,,,0.00,Wunderground v.1.15,2013-06-09 06:17:00,
2013-06-09 02:22:00,66.9,61.6,30.04,ENE,72,0.0,0.0,83,0.00,,,0.00,Wunderground v.1.15,2013-06-09 06:22:00,
2013-06-09 02:27:00,66.9,61.9,30.04,ENE,72,0.0,0.0,84,0.00,,,0.00,Wunderground v.1.15,2013-06-09 06:27:00,
2013-06-09 02:32:00,66.9,61.9,30.04,ENE,72,0.0,0.0,84,0.00,,,0.00,Wunderground v.1.15,2013-06-09 06:32:00,
2013-06-09 02:37:00,66.9,61.9,30.04,ENE,72,0.0,1.0,84,0.00,,,0.00,Wunderground v.1.15,2013-06-09 06:37:00,
2013-06-09 02:42:00,66.8,62.1,30.04,ENE,72,0.0,1.0,85,0.00,,,0.00,Wunderground v.1.15,2013-06-09 06:42:00,
2013-06-09 02:47:00,66.4,61.8,30.04,ENE,72,0.0,2.0,85,0.00,,,0.00,Wunderground v.1.15,2013-06-09 06:47:00,
2013-06-09 02:52:00,66.4,61.8,30.04,ENE,72,0.0,0.0,85,0.00,,,0.00,Wunderground v.1.15,2013-06-09 06:52:00,
2013-06-09 02:57:00,66.4,61.4,30.04,ENE,72,0.0,0.0,84,0.00,,,0.00,Wunderground v.1.15,2013-06-09 06:57:00,
2013-06-09 03:02:00,66.4,61.4,30.04,ENE,72,0.0,0.0,84,0.00,,,0.00,Wunderground v.1.15,2013-06-09 07:02:00,
2013-06-09 03:07:00,66.4,61.4,30.04,ENE,72,0.0,0.0,84,0.00,,,0.00,Wunderground v.1.15,2013-06-09 07:07:00,
2013-06-09 03:12:00,66.4,61.4,30.04,ENE,72,0.0,1.0,84,0.00,,,0.00,Wunderground v.1.15,2013-06-09 07:12:00,
2013-06-09 03:17:00,66.4,61.4,30.04,ENE,72,0.0,1.0,84,0.00,,,0.00,Wunderground v.1.15,2013-06-09 07:17:00,
2013-06-09 03:22:00,66.4,61.4,30.04,ENE,72,0.0,0.0,84,0.00,,,0.00,Wunderground v.1.15,2013-06-09 07:22:00,
2013-06-09 03:27:00,66.4,61.4,30.04,ENE,72,0.0,0.0,84,0.00,,,0.00,Wunderground v.1.15,2013-06-09 07:27:00,
2013-06-09 03:32:00,66.4,61.4,30.04,ENE,72,0.0,0.0,84,0.00,,,0.00,Wunderground v.1.15,2013-06-09 07:32:00,
2013-06-09 03:37:00,66.4,61.4,30.04,ENE,72,0.0,1.0,84,0.00,,,0.00,Wunderground v.1.15,2013-06-09 07:37:00,
2013-06-09 03:42:00,66.3,61.3,30.03,ENE,72,0.0,0.0,84,0.00,,,0.00,Wunderground v.1.15,2013-06-09 07:42:00,
2013-06-09 03:47:00,66.3,61.7,30.03,ENE,72,0.0,0.0,85,0.00,,,0.00,Wunderground v.1.15,2013-06-09 07:47:00,
2013-06-09 03:52:00,66.3,61.7,30.03,ENE,72,0.0,0.0,85,0.00,,,0.00,Wunderground v.1.15,2013-06-09 07:52:00,
2013-06-09 03:57:00,66.4,61.8,30.03,ENE,72,0.0,0.0,85,0.00,,,0.00,Wunderground v.1.15,2013-06-09 07:57:00,
2013-06-09 04:02:00,66.4,61.8,30.03,ENE,72,0.0,0.0,85,0.00,,,0.00,Wunderground v.1.15,2013-06-09 08:02:00,
2013-06-09 04:07:00,66.4,61.4,30.03,ENE,72,0.0,0.0,84,0.00,,,0.00,Wunderground v.1.15,2013-06-09 08:07:00,
2013-06-09 04:12:00,66.4,61.8,30.03,ENE,72,0.0,0.0,85,0.00,,,0.00,Wunderground v.1.15,2013-06-09 08:12:00,
2013-06-09 04:17:00,66.6,61.9,30.03,ENE,72,0.0,0.0,85,0.00,,,0.00,Wunderground v.1.15,2013-06-09 08:17:00,
2013-06-09 04:22:00,66.8,62.1,30.03,ENE,72,0.0,0.0,85,0.00,,,0.00,Wunderground v.1.15,2013-06-09 08:22:00,
2013-06-09 04:27:00,67.1,62.1,30.03,ENE,72,0.0,0.0,84,0.00,,,0.00,Wunderground v.1.15,2013-06-09 08:27:00,
2013-06-09 04:32:00,67.6,62.3,30.03,ENE,72,0.0,0.0,83,0.00,,,0.00,Wunderground v.1.15,2013-06-09 08:32:00,
2013-06-09 04:37:00,67.9,62.2,30.03,ENE,72,0.0,0.0,82,0.00,,,0.00,Wunderground v.1.15,2013-06-09 08:37:00,
2013-06-09 04:42:00,67.9,62.2,30.02,ENE,72,0.0,0.0,82,0.00,,,0.00,Wunderground v.1.15,2013-06-09 08:42:00,
2013-06-09 04:47:00,67.8,62.4,30.02,ENE,72,0.0,0.0,83,0.00,,,0.00,Wunderground v.1.15,2013-06-09 08:47:00,
2013-06-09 04:52:00,67.4,62.4,30.02,ENE,72,0.0,0.0,84,0.00,,,0.00,Wunderground v.1.15,2013-06-09 08:52:00,
2013-06-09 04:57:00,67.4,62.4,30.02,ENE,72,0.0,0.0,84,0.00,,,0.00,Wunderground v.1.15,2013-06-09 08:57:00,
2013-06-09 05:02:00,67.6,62.6,30.02,ENE,72,0.0,0.0,84,0.00,,,0.00,Wunderground v.1.15,2013-06-09 09:02:00,
2013-06-09 05:07:00,67.8,62.4,30.02,ENE,72,0.0,0.0,83,0.00,,,0.00,Wunderground v.1.15,2013-06-09 09:07:00,
2013-06-09 05:12:00,67.8,62.8,30.02,ENE,72,0.0,0.0,84,0.00,,,0.00,Wunderground v.1.15,2013-06-09 09:12:00,
2013-06-09 05:17:00,67.6,62.6,30.02,ENE,72,0.0,0.0,84,0.00,,,0.00,Wunderground v.1.15,2013-06-09 09:17:00,
2013-06-09 05:22:00,67.4,62.4,30.02,ENE,72,0.0,0.0,84,0.00,,,0.00,Wunderground v.1.15,2013-06-09 09:22:00,
2013-06-09 05:27:00,67.4,63.1,30.03,ENE,72,0.0,0.0,86,0.00,,,0.00,Wunderground v.1.15,2013-06-09 09:27:00,
2013-06-09 05:32:00,67.3,63.0,30.03,ENE,72,0.0,0.0,86,0.00,,,0.00,Wunderground v.1.15,2013-06-09 09:32:00,
2013-06-09 05:37:00,67.1,62.8,30.03,ENE,72,0.0,0.0,86,0.00,,,0.00,Wunderground v.1.15,2013-06-09 09:37:00,
2013-06-09 05:42:00,67.3,63.0,30.04,ENE,72,0.0,0.0,86,0.00,,,0.00,Wunderground v.1.15,2013-06-09 09:42:00,
2013-06-09 05:47:00,67.3,62.6,30.04,ENE,72,0.0,1.0,85,0.00,,,0.00,Wunderground v.1.15,2013-06-09 09:47:00,
2013-06-09 05:52:00,67.3,62.6,30.04,ENE,72,0.0,0.0,85,0.00,,,0.00,Wunderground v.1.15,2013-06-09 09:52:00,
2013-06-09 05:57:00,67.1,62.8,30.04,ENE,72,0.0,1.0,86,0.00,,,0.00,Wunderground v.1.15,2013-06-09 09:57:00,
2013-06-09 06:02:00,66.9,62.6,30.04,ENE,72,0.0,1.0,86,0.00,,,0.00,Wunderground v.1.15,2013-06-09 10:02:00,
2013-06-09 06:07:00,66.9,62.6,30.04,ENE,72,0.0,1.0,86,0.00,,,0.00,Wunderground v.1.15,2013-06-09 10:07:00,
2013-06-09 06:12:00,66.9,62.6,30.04,ENE,72,0.0,0.0,86,0.00,,,0.00,Wunderground v.1.15,2013-06-09 10:12:00,
2013-06-09 06:17:00,66.9,62.6,30.04,ENE,72,0.0,0.0,86,0.00,,,0.00,Wunderground v.1.15,2013-06-09 10:17:00,
2013-06-09 06:22:00,66.9,62.9,30.04,ENE,72,0.0,0.0,87,0.00,,,0.00,Wunderground v.1.15,2013-06-09 10:22:00,
2013-06-09 06:27:00,66.8,62.8,30.04,ENE,72,0.0,0.0,87,0.00,,,0.00,Wunderground v.1.15,2013-06-09 10:27:00,
2013-06-09 06:32:00,66.6,62.9,30.04,ENE,72,0.0,0.0,88,0.00,,,0.00,Wunderground v.1.15,2013-06-09 10:32:00,
2013-06-09 06:37:00,66.4,62.7,30.04,ENE,72,0.0,0.0,88,0.00,,,0.00,Wunderground v.1.15,2013-06-09 10:37:00,
2013-06-09 06:42:00,66.4,63.1,30.05,ENE,72,0.0,0.0,89,0.00,,,0.00,Wunderground v.1.15,2013-06-09 10:42:00,
2013-06-09 06:47:00,66.3,63.0,30.05,ENE,72,0.0,0.0,89,0.00,,,0.00,Wunderground v.1.15,2013-06-09 10:47:00,
2013-06-09 06:52:00,66.6,63.6,30.05,ENE,72,0.0,0.0,90,0.00,,,0.00,Wunderground v.1.15,2013-06-09 10:52:00,
2013-06-09 06:57:00,66.8,63.5,30.05,ENE,72,0.0,0.0,89,0.00,,,0.00,Wunderground v.1.15,2013-06-09 10:57:00,
2013-06-09 07:02:00,66.9,63.6,30.05,ENE,72,0.0,0.0,89,0.00,,,0.00,Wunderground v.1.15,2013-06-09 11:02:00,
2013-06-09 07:07:00,66.9,63.6,30.05,ENE,72,0.0,0.0,89,0.00,,,0.00,Wunderground v.1.15,2013-06-09 11:07:00,
2013-06-09 07:12:00,66.9,63.9,30.06,ENE,72,2.0,2.0,90,0.00,,,0.00,Wunderground v.1.15,2013-06-09 11:12:00,
2013-06-09 07:17:00,66.9,63.9,30.06,ENE,72,0.0,2.0,90,0.00,,,0.00,Wunderground v.1.15,2013-06-09 11:17:00,
2013-06-09 07:22:00,66.8,63.8,30.06,ENE,72,2.0,4.0,90,0.00,,,0.00,Wunderground v.1.15,2013-06-09 11:22:00,
2013-06-09 07:27:00,66.8,64.4,30.06,ENE,72,0.0,4.0,92,0.00,,,0.00,Wunderground v.1.15,2013-06-09 11:27:00,
2013-06-09 07:32:00,66.9,64.5,30.06,ENE,68,0.0,3.0,92,0.00,,,0.00,Wunderground v.1.15,2013-06-09 11:32:00,
2013-06-09 07:37:00,66.9,64.5,30.06,ENE,68,0.0,3.0,92,0.00,,,0.00,Wunderground v.1.15,2013-06-09 11:37:00,
2013-06-09 07:42:00,67.1,65.0,30.05,ENE,68,0.0,0.0,93,0.00,,,0.00,Wunderground v.1.15,2013-06-09 11:42:00,
2013-06-09 07:47:00,67.3,64.9,30.05,ENE,68,0.0,0.0,92,0.00,,,0.00,Wunderground v.1.15,2013-06-09 11:47:00,
2013-06-09 07:52:00,67.8,65.7,30.05,ENE,68,3.0,4.0,93,0.00,,,0.00,Wunderground v.1.15,2013-06-09 11:52:00,
2013-06-09 07:57:00,67.9,65.8,30.05,ENE,70,4.0,4.0,93,0.00,,,0.00,Wunderground v.1.15,2013-06-09 11:57:00,
2013-06-09 08:02:00,68.1,65.7,30.05,East,82,3.0,5.0,92,0.00,,,0.00,Wunderground v.1.15,2013-06-09 12:02:00,
2013-06-09 08:07:00,68.1,65.7,30.05,East,92,1.0,5.0,92,0.00,,,0.00,Wunderground v.1.15,2013-06-09 12:07:00,
2013-06-09 08:13:00,68.1,66.0,30.04,ESE,106,2.0,4.0,93,0.00,,,0.00,Wunderground v.1.15,2013-06-09 12:13:00,
2013-06-09 08:18:00,68.1,65.7,30.04,ESE,105,0.0,4.0,92,0.00,,,0.00,Wunderground v.1.15,2013-06-09 12:18:00,
2013-06-09 08:23:00,68.1,65.7,30.04,ESE,105,0.0,3.0,92,0.00,,,0.00,Wunderground v.1.15,2013-06-09 12:23:00,
2013-06-09 08:27:00,68.3,65.9,30.05,ESE,105,2.0,4.0,92,0.00,,,0.00,Wunderground v.1.15,2013-06-09 12:27:00,
2013-06-09 08:33:00,68.6,66.2,30.05,ESE,105,0.0,1.0,92,0.00,,,0.00,Wunderground v.1.15,2013-06-09 12:33:00,
2013-06-09 08:38:00,68.8,66.1,30.05,ESE,105,2.0,5.0,91,0.00,,,0.00,Wunderground v.1.15,2013-06-09 12:38:00,
2013-06-09 08:43:00,68.8,65.7,30.06,SE,141,0.0,3.0,90,0.00,,,0.00,Wunderground v.1.15,2013-06-09 12:43:00,
2013-06-09 08:48:00,68.9,66.2,30.06,SE,135,1.0,5.0,91,0.00,,,0.00,Wunderground v.1.15,2013-06-09 12:48:00,
2013-06-09 08:53:00,68.8,65.7,30.06,SE,135,0.0,3.0,90,0.00,,,0.00,Wunderground v.1.15,2013-06-09 12:53:00,
2013-06-09 08:58:00,68.8,65.7,30.06,ESE,115,3.0,4.0,90,0.00,,,0.00,Wunderground v.1.15,2013-06-09 12:58:00,
2013-06-09 09:03:00,68.8,66.1,30.06,ESE,115,0.0,1.0,91,0.00,,,0.00,Wunderground v.1.15,2013-06-09 13:03:00,
2013-06-09 09:08:00,69.1,66.7,30.06,ESE,115,1.0,5.0,92,0.00,,,0.00,Wunderground v.1.15,2013-06-09 13:08:00,
2013-06-09 09:13:00,68.9,66.2,30.07,ESE,114,0.0,2.0,91,0.00,,,0.00,Wunderground v.1.15,2013-06-09 13:13:00,
2013-06-09 09:18:00,69.1,66.4,30.07,ESE,121,0.0,2.0,91,0.00,,,0.00,Wunderground v.1.15,2013-06-09 13:18:00,
2013-06-09 09:23:00,69.4,66.7,30.07,ESE,111,3.0,9.0,91,0.00,,,0.00,Wunderground v.1.15,2013-06-09 13:23:00,
2013-06-09 09:28:00,69.6,66.9,30.06,ESE,107,2.0,9.0,91,0.00,,,0.00,Wunderground v.1.15,2013-06-09 13:28:00,
2013-06-09 09:33:00,70.3,67.5,30.06,East,96,4.0,6.0,91,0.00,,,0.00,Wunderground v.1.15,2013-06-09 13:33:00,
2013-06-09 09:38:00,70.6,67.5,30.06,East,93,0.0,6.0,90,0.00,,,0.00,Wunderground v.1.15,2013-06-09 13:38:00,
2013-06-09 09:43:00,71.3,67.6,30.06,ESE,116,0.0,5.0,88,0.00,,,0.00,Wunderground v.1.15,2013-06-09 13:43:00,
2013-06-09 09:48:00,71.5,67.4,30.06,East,86,1.0,7.0,87,0.00,,,0.00,Wunderground v.1.15,2013-06-09 13:48:00,
2013-06-09 09:53:00,70.9,66.8,30.06,ESE,110,0.0,7.0,87,0.00,,,0.00,Wunderground v.1.15,2013-06-09 13:53:00,
2013-06-09 09:58:00,70.4,66.7,30.06,East,96,2.0,7.0,88,0.00,,,0.00,Wunderground v.1.15,2013-06-09 13:58:00,
2013-06-09 10:03:00,70.3,66.9,30.06,East,94,3.0,5.0,89,0.00,,,0.00,Wunderground v.1.15,2013-06-09 14:03:00,
2013-06-09 10:08:00,70.1,66.7,30.06,ESE,110,1.0,9.0,89,0.00,,,0.00,Wunderground v.1.15,2013-06-09 14:08:00,
2013-06-09 10:13:00,70.1,67.0,30.06,East,97,2.0,5.0,90,0.00,,,0.00,Wunderground v.1.15,2013-06-09 14:13:00,
2013-06-09 10:18:00,70.3,67.2,30.06,East,98,2.0,6.0,90,0.00,,,0.00,Wunderground v.1.15,2013-06-09 14:18:00,
2013-06-09 10:23:00,70.4,67.0,30.06,East,80,3.0,5.0,89,0.00,,,0.00,Wunderground v.1.15,2013-06-09 14:23:00,
2013-06-09 10:28:00,70.6,66.9,30.05,ENE,63,3.0,5.0,88,0.00,,,0.00,Wunderground v.1.15,2013-06-09 14:28:00,
2013-06-09 10:33:00,70.8,67.1,30.05,East,94,0.0,4.0,88,0.00,,,0.00,Wunderground v.1.15,2013-06-09 14:33:00,
2013-06-09 10:38:00,71.8,68.1,30.05,ESE,112,4.0,7.0,88,0.00,,,0.00,Wunderground v.1.15,2013-06-09 14:38:00,
2013-06-09 10:43:00,72.5,68.1,30.04,SE,131,0.0,5.0,86,0.00,,,0.00,Wunderground v.1.15,2013-06-09 14:43:00,
2013-06-09 10:48:00,73.0,68.2,30.04,East,85,2.0,7.0,85,0.00,,,0.00,Wunderground v.1.15,2013-06-09 14:48:00,
2013-06-09 10:53:00,73.0,67.5,30.04,East,97,0.0,3.0,83,0.00,,,0.00,Wunderground v.1.15,2013-06-09 14:53:00,
2013-06-09 10:58:00,73.3,68.2,30.05,East,97,1.0,3.0,84,0.00,,,0.00,Wunderground v.1.15,2013-06-09 14:58:00,
2013-06-09 11:03:00,73.3,67.8,30.05,ESE,111,0.0,7.0,83,0.00,,,0.00,Wunderground v.1.15,2013-06-09 15:03:00,
2013-06-09 11:08:00,73.0,67.9,30.05,ESE,108,4.0,11.0,84,0.00,,,0.00,Wunderground v.1.15,2013-06-09 15:08:00,
2013-06-09 11:13:00,73.2,67.7,30.05,ESE,108,1.0,5.0,83,0.00,,,0.00,Wunderground v.1.15,2013-06-09 15:13:00,
2013-06-09 11:18:00,73.0,67.5,30.05,ENE,70,0.0,6.0,83,0.00,,,0.00,Wunderground v.1.15,2013-06-09 15:18:00,
2013-06-09 11:23:00,73.0,67.9,30.05,East,89,5.0,7.0,84,0.00,,,0.00,Wunderground v.1.15,2013-06-09 15:23:00,
2013-06-09 11:28:00,73.5,68.7,30.05,East,91,4.0,7.0,85,0.00,,,0.00,Wunderground v.1.15,2013-06-09 15:28:00,
2013-06-09 11:33:00,73.9,68.1,30.05,East,97,0.0,6.0,82,0.00,,,0.00,Wunderground v.1.15,2013-06-09 15:33:00,
2013-06-09 11:38:00,73.3,67.5,30.05,East,87,3.0,10.0,82,0.00,,,0.00,Wunderground v.1.15,2013-06-09 15:38:00,
2013-06-09 11:43:00,72.8,68.0,30.06,East,86,2.0,7.0,85,0.00,,,0.00,Wunderground v.1.15,2013-06-09 15:43:00,
2013-06-09 11:48:00,72.8,68.4,30.06,East,93,0.0,7.0,86,0.00,,,0.00,Wunderground v.1.15,2013-06-09 15:48:00,
2013-06-09 11:53:00,73.3,67.8,30.06,East,94,0.0,6.0,83,0.00,,,0.00,Wunderground v.1.15,2013-06-09 15:53:00,
2013-06-09 11:58:00,74.7,67.8,30.05,ESE,112,0.0,7.0,79,0.00,,,0.00,Wunderground v.1.15,2013-06-09 15:58:00,
2013-06-09 12:03:00,74.6,68.0,30.05,East,82,4.0,5.0,80,0.00,,,0.00,Wunderground v.1.15,2013-06-09 16:03:00,
2013-06-09 12:08:00,74.4,68.2,30.05,East,98,4.0,9.0,81,0.00,,,0.00,Wunderground v.1.15,2013-06-09 16:08:00,
2013-06-09 12:13:00,74.0,67.8,30.04,East,93,0.0,7.0,81,0.00,,,0.00,Wunderground v.1.15,2013-06-09 16:13:00,
2013-06-09 12:18:00,74.4,68.5,30.04,ESE,105,6.0,7.0,82,0.00,,,0.00,Wunderground v.1.15,2013-06-09 16:18:00,
2013-06-09 12:23:00,74.4,68.5,30.04,ESE,103,5.0,9.0,82,0.00,,,0.00,Wunderground v.1.15,2013-06-09 16:23:00,
2013-06-09 12:28:00,74.0,67.8,30.04,East,98,1.0,9.0,81,0.00,,,0.00,Wunderground v.1.15,2013-06-09 16:28:00,
2013-06-09 12:33:00,74.2,69.1,30.04,ENE,77,2.0,3.0,84,0.00,,,0.00,Wunderground v.1.15,2013-06-09 16:33:00,
2013-06-09 12:38:00,74.2,69.1,30.04,ESE,106,4.0,10.0,84,0.00,,,0.00,Wunderground v.1.15,2013-06-09 16:38:00,
2013-06-09 12:43:00,75.1,70.3,30.03,ESE,103,4.0,6.0,85,0.00,,,0.00,Wunderground v.1.15,2013-06-09 16:43:00,
2013-06-09 12:48:00,74.9,68.7,30.03,East,82,4.0,9.0,81,0.00,,,0.00,Wunderground v.1.15,2013-06-09 16:48:00,
2013-06-09 12:53:00,74.9,68.7,30.03,NE,51,2.0,6.0,81,0.00,,,0.00,Wunderground v.1.15,2013-06-09 16:53:00,
2013-06-09 12:58:00,74.2,68.7,30.02,ESE,111,0.0,6.0,83,0.00,,,0.00,Wunderground v.1.15,2013-06-09 16:58:00,
2013-06-09 13:03:00,74.4,68.9,30.02,East,101,0.0,2.0,83,0.00,,,0.00,Wunderground v.1.15,2013-06-09 17:03:00,
2013-06-09 13:08:00,74.9,69.4,30.02,East,101,0.0,2.0,83,0.00,,,0.00,Wunderground v.1.15,2013-06-09 17:08:00,
2013-06-09 13:13:00,76.1,69.1,30.01,East,101,0.0,0.0,79,0.00,,,0.00,Wunderground v.1.15,2013-06-09 17:13:00,
2013-06-09 13:18:00,77.0,70.0,30.01,East,101,0.0,4.0,79,0.00,,,0.00,Wunderground v.1.15,2013-06-09 17:18:00,
2013-06-09 13:23:00,77.9,70.1,30.01,ESE,110,11.0,11.0,77,0.00,,,0.00,Wunderground v.1.15,2013-06-09 17:23:00,
2013-06-09 13:28:00,77.2,68.3,30.01,East,94,0.0,12.0,74,0.00,,,0.00,Wunderground v.1.15,2013-06-09 17:28:00,
2013-06-09 13:33:00,77.0,68.9,30.01,East,98,0.0,7.0,76,0.00,,,0.00,Wunderground v.1.15,2013-06-09 17:33:00,
2013-06-09 13:38:00,77.0,69.2,30.01,East,101,3.0,7.0,77,0.00,,,0.00,Wunderground v.1.15,2013-06-09 17:38:00,
2013-06-09 13:43:00,76.5,68.7,30.00,ESE,105,0.0,5.0,77,0.00,,,0.00,Wunderground v.1.15,2013-06-09 17:43:00,
2013-06-09 13:48:00,76.1,67.6,30.00,ESE,107,3.0,5.0,75,0.00,,,0.00,Wunderground v.1.15,2013-06-09 17:48:00,
2013-06-09 13:53:00,75.6,68.3,30.00,ESE,107,0.0,2.0,78,0.00,,,0.00,Wunderground v.1.15,2013-06-09 17:53:00,
2013-06-09 13:58:00,75.1,67.4,30.00,ESE,107,0.0,2.0,77,0.00,,,0.00,Wunderground v.1.15,2013-06-09 17:58:00,
2013-06-09 14:03:00,74.7,68.1,30.00,ESE,107,0.0,0.0,80,0.00,,,0.00,Wunderground v.1.15,2013-06-09 18:03:00,
2013-06-09 14:08:00,74.9,69.0,30.00,ENE,66,0.0,2.0,82,0.00,,,0.00,Wunderground v.1.15,2013-06-09 18:08:00,
2013-06-09 14:13:00,75.4,68.8,29.99,NW,319,0.0,3.0,80,0.00,,,0.00,Wunderground v.1.15,2013-06-09 18:13:00,
2013-06-09 14:18:00,75.8,68.8,29.99,North,352,0.0,3.0,79,0.00,,,0.00,Wunderground v.1.15,2013-06-09 18:18:00,
2013-06-09 14:23:00,76.0,69.4,29.99,North,2,0.0,2.0,80,0.00,,,0.00,Wunderground v.1.15,2013-06-09 18:23:00,
2013-06-09 14:28:00,75.6,69.4,30.00,North,2,0.0,2.0,81,0.87,,,0.03,Wunderground v.1.15,2013-06-09 18:28:00,
2013-06-09 14:33:00,74.6,69.1,30.00,West,266,5.0,12.0,83,0.12,,,0.05,Wunderground v.1.15,2013-06-09 18:33:00,
2013-06-09 14:38:00,72.1,66.3,30.00,West,267,7.0,12.0,82,0.18,,,0.06,Wunderground v.1.15,2013-06-09 18:38:00,
2013-06-09 14:43:00,70.3,65.2,30.01,WNW,300,0.0,3.0,84,0.38,,,0.10,Wunderground v.1.15,2013-06-09 18:43:00,
2013-06-09 14:48:00,69.3,65.6,30.01,NW,309,0.0,3.0,88,0.29,,,0.12,Wunderground v.1.15,2013-06-09 18:48:00,
2013-06-09 14:53:00,68.8,65.7,30.01,West,265,2.0,9.0,90,1.66,,,0.17,Wunderground v.1.15,2013-06-09 18:53:00,
2013-06-09 14:58:00,68.1,65.7,30.03,East,92,3.0,9.0,92,4.80,,,0.40,Wunderground v.1.15,2013-06-09 18:58:00,
2013-06-09 15:03:00,67.4,65.0,30.03,East,84,0.0,6.0,92,0.95,,,0.53,Wunderground v.1.15,2013-06-09 19:03:00,
2013-06-09 15:08:00,67.1,65.0,30.03,ESE,103,3.0,7.0,93,0.28,,,0.55,Wunderground v.1.15,2013-06-09 19:08:00,
2013-06-09 15:13:00,66.6,64.8,30.04,East,99,0.0,7.0,94,0.13,,,0.56,Wunderground v.1.15,2013-06-09 19:13:00,
2013-06-09 15:18:00,66.4,64.6,30.04,East,99,0.0,7.0,94,0.11,,,0.57,Wunderground v.1.15,2013-06-09 19:18:00,
2013-06-09 15:23:00,66.4,64.6,30.04,East,99,0.0,2.0,94,0.11,,,0.57,Wunderground v.1.15,2013-06-09 19:23:00,
2013-06-09 15:28:00,66.6,65.1,30.03,East,99,0.0,2.0,95,0.06,,,0.57,Wunderground v.1.15,2013-06-09 19:28:00,
2013-06-09 15:33:00,66.4,64.9,30.03,East,99,0.0,1.0,95,0.05,,,0.58,Wunderground v.1.15,2013-06-09 19:33:00,
2013-06-09 15:38:00,66.6,65.4,30.03,East,99,0.0,1.0,96,0.05,,,0.58,Wunderground v.1.15,2013-06-09 19:38:00,
2013-06-09 15:43:00,66.4,65.2,30.02,ESE,103,0.0,2.0,96,0.05,,,0.58,Wunderground v.1.15,2013-06-09 19:43:00,
2013-06-09 15:48:00,66.8,65.6,30.02,ESE,103,0.0,2.0,96,0.00,,,0.58,Wunderground v.1.15,2013-06-09 19:48:00,
2013-06-09 15:53:00,66.6,65.4,30.02,ESE,103,0.0,2.0,96,0.00,,,0.59,Wunderground v.1.15,2013-06-09 19:53:00,
2013-06-09 15:58:00,66.9,65.7,30.02,ESE,103,0.0,2.0,96,0.00,,,0.59,Wunderground v.1.15,2013-06-09 19:58:00,
2013-06-09 16:03:00,67.1,65.9,30.02,East,93,0.0,1.0,96,0.05,,,0.60,Wunderground v.1.15,2013-06-09 20:03:00,
2013-06-09 16:08:00,67.1,65.9,30.02,East,93,0.0,1.0,96,0.05,,,0.60,Wunderground v.1.15,2013-06-09 20:08:00,
2013-06-09 16:13:00,67.1,65.9,30.02,SSE,165,0.0,3.0,96,0.07,,,0.61,Wunderground v.1.15,2013-06-09 20:13:00,
2013-06-09 16:18:00,67.3,66.1,30.02,SSE,165,0.0,3.0,96,0.07,,,0.61,Wunderground v.1.15,2013-06-09 20:18:00,
2013-06-09 16:23:00,67.3,66.4,30.02,SSE,165,0.0,0.0,97,0.05,,,0.61,Wunderground v.1.15,2013-06-09 20:23:00,
2013-06-09 16:28:00,67.1,65.9,30.01,SSE,165,0.0,1.0,96,0.00,,,0.61,Wunderground v.1.15,2013-06-09 20:28:00,
2013-06-09 16:33:00,67.1,65.9,30.01,SSE,165,0.0,1.0,96,0.00,,,0.61,Wunderground v.1.15,2013-06-09 20:33:00,
2013-06-09 16:38:00,67.1,66.2,30.01,SSE,165,0.0,1.0,97,0.00,,,0.62,Wunderground v.1.15,2013-06-09 20:38:00,
2013-06-09 16:43:00,67.3,66.4,30.00,SSE,165,0.0,1.0,97,0.00,,,0.62,Wunderground v.1.15,2013-06-09 20:43:00,
2013-06-09 16:48:00,67.3,66.4,30.00,SSE,165,0.0,1.0,97,0.00,,,0.62,Wunderground v.1.15,2013-06-09 20:48:00,
2013-06-09 16:53:00,67.4,66.5,30.00,SSE,165,0.0,0.0,97,0.00,,,0.63,Wunderground v.1.15,2013-06-09 20:53:00,
2013-06-09 16:58:00,67.8,66.9,29.99,SSE,165,0.0,1.0,97,0.00,,,0.63,Wunderground v.1.15,2013-06-09 20:58:00,
2013-06-09 17:03:00,67.8,66.9,29.99,East,91,0.0,2.0,97,0.00,,,0.63,Wunderground v.1.15,2013-06-09 21:03:00,
2013-06-09 17:08:00,67.6,66.7,29.99,East,91,0.0,2.0,97,0.00,,,0.63,Wunderground v.1.15,2013-06-09 21:08:00,
2013-06-09 17:13:00,67.4,66.5,29.99,East,91,0.0,0.0,97,0.00,,,0.63,Wunderground v.1.15,2013-06-09 21:13:00,
2013-06-09 17:18:00,67.4,66.5,29.99,East,91,0.0,1.0,97,0.00,,,0.63,Wunderground v.1.15,2013-06-09 21:18:00,
2013-06-09 17:23:00,67.6,66.7,29.99,East,91,0.0,0.0,97,0.00,,,0.63,Wunderground v.1.15,2013-06-09 21:23:00,
2013-06-09 17:28:00,67.8,66.9,29.98,East,91,0.0,1.0,97,0.00,,,0.63,Wunderground v.1.15,2013-06-09 21:28:00,
2013-06-09 17:33:00,67.8,66.9,29.98,East,91,0.0,1.0,97,0.00,,,0.63,Wunderground v.1.15,2013-06-09 21:33:00,
2013-06-09 17:38:00,67.8,66.9,29.98,SSE,162,0.0,2.0,97,0.00,,,0.63,Wunderground v.1.15,2013-06-09 21:38:00,
2013-06-09 17:43:00,67.8,66.9,29.97,SE,146,1.0,1.0,97,0.00,,,0.63,Wunderground v.1.15,2013-06-09 21:43:00,
2013-06-09 17:48:00,67.8,66.9,29.97,SE,138,0.0,5.0,97,0.00,,,0.63,Wunderground v.1.15,2013-06-09 21:48:00,
2013-06-09 17:53:00,68.1,67.2,29.97,SE,138,0.0,3.0,97,0.00,,,0.63,Wunderground v.1.15,2013-06-09 21:53:00,
2013-06-09 17:58:00,68.4,67.5,29.97,SE,137,0.0,3.0,97,0.00,,,0.63,Wunderground v.1.15,2013-06-09 21:58:00,
2013-06-09 18:03:00,68.4,67.5,29.97,East,79,0.0,5.0,97,0.00,,,0.63,Wunderground v.1.15,2013-06-09 22:03:00,
2013-06-09 18:08:00,68.6,67.7,29.97,East,100,2.0,6.0,97,0.00,,,0.63,Wunderground v.1.15,2013-06-09 22:08:00,
2013-06-09 18:13:00,68.4,67.2,29.97,East,96,3.0,4.0,96,0.00,,,0.63,Wunderground v.1.15,2013-06-09 22:13:00,
2013-06-09 18:18:00,68.3,67.1,29.97,ESE,111,1.0,6.0,96,0.00,,,0.63,Wunderground v.1.15,2013-06-09 22:18:00,
2013-06-09 18:23:00,68.4,67.2,29.97,ESE,111,1.0,4.0,96,0.00,,,0.63,Wunderground v.1.15,2013-06-09 22:23:00,
2013-06-09 18:28:00,68.4,67.5,29.97,ESE,111,0.0,4.0,97,0.00,,,0.63,Wunderground v.1.15,2013-06-09 22:28:00,
2013-06-09 18:33:00,68.6,67.7,29.97,ESE,111,0.0,3.0,97,0.00,,,0.63,Wunderground v.1.15,2013-06-09 22:33:00,
2013-06-09 18:38:00,68.4,67.5,29.97,ESE,111,1.0,4.0,97,0.00,,,0.63,Wunderground v.1.15,2013-06-09 22:38:00,
2013-06-09 18:43:00,68.4,67.5,29.97,ESE,111,3.0,3.0,97,0.00,,,0.63,Wunderground v.1.15,2013-06-09 22:43:00,
2013-06-09 18:48:00,68.3,67.4,29.97,ESE,111,0.0,3.0,97,0.00,,,0.63,Wunderground v.1.15,2013-06-09 22:48:00,
2013-06-09 18:53:00,68.3,67.4,29.97,ESE,109,0.0,5.0,97,0.00,,,0.63,Wunderground v.1.15,2013-06-09 22:53:00,
2013-06-09 18:58:00,68.4,67.5,29.97,ESE,109,0.0,5.0,97,0.00,,,0.63,Wunderground v.1.15,2013-06-09 22:58:00,
2013-06-09 19:03:00,68.4,67.8,29.97,East,83,0.0,1.0,98,0.00,,,0.63,Wunderground v.1.15,2013-06-09 23:03:00,
2013-06-09 19:08:00,68.6,68.0,29.97,East,83,0.0,4.0,98,0.00,,,0.63,Wunderground v.1.15,2013-06-09 23:08:00,
2013-06-09 19:13:00,68.6,68.0,29.96,ESE,103,0.0,4.0,98,0.00,,,0.63,Wunderground v.1.15,2013-06-09 23:13:00,
2013-06-09 19:18:00,68.4,67.8,29.96,ESE,103,2.0,4.0,98,0.00,,,0.63,Wunderground v.1.15,2013-06-09 23:18:00,
2013-06-09 19:23:00,68.4,67.8,29.96,ESE,103,0.0,3.0,98,0.00,,,0.63,Wunderground v.1.15,2013-06-09 23:23:00,
2013-06-09 19:28:00,68.6,68.0,29.97,ESE,117,0.0,6.0,98,0.00,,,0.63,Wunderground v.1.15,2013-06-09 23:28:00,
2013-06-09 19:33:00,68.6,68.0,29.97,ESE,106,0.0,4.0,98,0.00,,,0.63,Wunderground v.1.15,2013-06-09 23:33:00,
2013-06-09 19:38:00,68.6,68.0,29.97,ESE,106,0.0,4.0,98,0.00,,,0.63,Wunderground v.1.15,2013-06-09 23:38:00,
2013-06-09 19:43:00,68.8,68.2,29.97,ESE,106,0.0,1.0,98,0.00,,,0.63,Wunderground v.1.15,2013-06-09 23:43:00,
2013-06-09 19:48:00,68.8,68.5,29.97,ESE,106,3.0,3.0,99,0.00,,,0.63,Wunderground v.1.15,2013-06-09 23:48:00,
2013-06-09 19:53:00,68.6,68.3,29.97,ESE,106,0.0,4.0,99,0.00,,,0.63,Wunderground v.1.15,2013-06-09 23:53:00,
2013-06-09 19:58:00,68.8,68.5,29.98,ESE,106,3.0,4.0,99,0.00,,,0.63,Wunderground v.1.15,2013-06-09 23:58:00,
2013-06-09 20:03:00,68.8,68.5,29.98,ESE,106,0.0,3.0,99,0.00,,,0.63,Wunderground v.1.15,2013-06-10 00:03:00,
2013-06-09 20:08:00,68.8,68.5,29.98,ESE,106,0.0,4.0,99,0.00,,,0.63,Wunderground v.1.15,2013-06-10 00:08:00,
2013-06-09 20:13:00,68.8,68.5,29.97,ESE,106,0.0,3.0,99,0.00,,,0.63,Wunderground v.1.15,2013-06-10 00:13:00,
2013-06-09 20:18:00,68.6,68.3,29.97,ESE,106,1.0,3.0,99,0.00,,,0.63,Wunderground v.1.15,2013-06-10 00:18:00,
2013-06-09 20:23:00,68.6,68.3,29.97,ESE,106,0.0,3.0,99,0.00,,,0.63,Wunderground v.1.15,2013-06-10 00:23:00,
2013-06-09 20:28:00,68.6,68.3,29.96,ESE,106,0.0,3.0,99,0.00,,,0.63,Wunderground v.1.15,2013-06-10 00:28:00,
2013-06-09 20:33:00,68.8,68.5,29.96,ESE,106,4.0,4.0,99,0.00,,,0.63,Wunderground v.1.15,2013-06-10 00:33:00,
2013-06-09 20:38:00,68.8,68.5,29.96,ESE,106,0.0,4.0,99,0.00,,,0.63,Wunderground v.1.15,2013-06-10 00:38:00,
2013-06-09 20:43:00,68.8,68.5,29.96,ESE,106,0.0,6.0,99,0.00,,,0.63,Wunderground v.1.15,2013-06-10 00:43:00,
2013-06-09 20:49:00,68.8,68.5,29.96,East,79,3.0,6.0,99,0.00,,,0.63,Wunderground v.1.15,2013-06-10 00:49:00,
2013-06-09 20:54:00,68.8,68.5,29.96,East,79,0.0,2.0,99,0.00,,,0.63,Wunderground v.1.15,2013-06-10 00:54:00,
2013-06-09 20:59:00,68.8,68.5,29.95,East,81,2.0,5.0,99,0.00,,,0.63,Wunderground v.1.15,2013-06-10 00:59:00,
2013-06-09 21:04:00,68.9,68.6,29.95,East,81,0.0,1.0,99,0.00,,,0.63,Wunderground v.1.15,2013-06-10 01:04:00,
2013-06-09 21:09:00,68.9,68.6,29.95,East,81,0.0,3.0,99,0.00,,,0.63,Wunderground v.1.15,2013-06-10 01:09:00,
2013-06-09 21:14:00,68.9,68.6,29.95,East,81,0.0,2.0,99,0.00,,,0.63,Wunderground v.1.15,2013-06-10 01:14:00,
2013-06-09 21:19:00,69.1,68.8,29.95,ENE,71,3.0,6.0,99,0.00,,,0.63,Wunderground v.1.15,2013-06-10 01:19:00,
2013-06-09 21:24:00,69.1,68.8,29.95,ENE,66,3.0,5.0,99,0.00,,,0.64,Wunderground v.1.15,2013-06-10 01:24:00,
2013-06-09 21:29:00,68.9,68.6,29.94,East,96,4.0,6.0,99,0.00,,,0.64,Wunderground v.1.15,2013-06-10 01:29:00,
2013-06-09 21:34:00,68.9,68.6,29.94,ENE,77,4.0,5.0,99,0.08,,,0.64,Wunderground v.1.15,2013-06-10 01:34:00,
2013-06-09 21:39:00,68.8,68.5,29.94,ENE,72,4.0,7.0,99,0.06,,,0.64,Wunderground v.1.15,2013-06-10 01:39:00,
2013-06-09 21:44:00,68.6,68.3,29.93,East,80,0.0,5.0,99,0.18,,,0.66,Wunderground v.1.15,2013-06-10 01:44:00,
2013-06-09 21:49:00,68.6,68.3,29.93,East,96,0.0,5.0,99,0.40,,,0.69,Wunderground v.1.15,2013-06-10 01:49:00,
2013-06-09 21:54:00,68.6,68.3,29.93,East,86,4.0,4.0,99,0.36,,,0.74,Wunderground v.1.15,2013-06-10 01:54:00,
2013-06-09 21:59:00,68.6,68.3,29.94,East,84,0.0,7.0,99,0.19,,,0.77,Wunderground v.1.15,2013-06-10 01:59:00,
2013-06-09 22:04:00,68.6,68.3,29.94,East,84,0.0,3.0,99,0.10,,,0.77,Wunderground v.1.15,2013-06-10 02:04:00,
2013-06-09 22:09:00,68.6,68.3,29.94,East,89,0.0,5.0,99,0.05,,,0.77,Wunderground v.1.15,2013-06-10 02:09:00,
2013-06-09 22:14:00,68.6,68.3,29.94,ESE,104,0.0,10.0,99,0.04,,,0.77,Wunderground v.1.15,2013-06-10 02:14:00,
2013-06-09 22:19:00,68.8,68.5,29.94,ESE,104,2.0,10.0,99,0.00,,,0.77,Wunderground v.1.15,2013-06-10 02:19:00,
2013-06-09 22:24:00,68.8,68.5,29.94,ESE,104,0.0,1.0,99,0.00,,,0.77,Wunderground v.1.15,2013-06-10 02:24:00,
2013-06-09 22:29:00,68.8,68.5,29.94,ESE,104,5.0,5.0,99,0.00,,,0.77,Wunderground v.1.15,2013-06-10 02:29:00,
2013-06-09 22:34:00,68.9,68.6,29.94,ESE,104,0.0,3.0,99,0.00,,,0.77,Wunderground v.1.15,2013-06-10 02:34:00,
2013-06-09 22:39:00,68.9,68.6,29.94,ESE,104,0.0,4.0,99,0.00,,,0.77,Wunderground v.1.15,2013-06-10 02:39:00,
2013-06-09 22:44:00,68.9,68.6,29.95,ESE,104,0.0,1.0,99,0.00,,,0.77,Wunderground v.1.15,2013-06-10 02:44:00,
2013-06-09 22:49:00,68.8,68.5,29.95,ESE,104,0.0,6.0,99,0.00,,,0.77,Wunderground v.1.15,2013-06-10 02:49:00,
2013-06-09 22:54:00,68.9,68.6,29.95,ESE,104,3.0,9.0,99,0.00,,,0.77,Wunderground v.1.15,2013-06-10 02:54:00,
2013-06-09 22:59:00,68.9,68.6,29.95,ESE,115,5.0,10.0,99,0.00,,,0.77,Wunderground v.1.15,2013-06-10 02:59:00,
2013-06-09 23:04:00,68.8,68.5,29.95,SE,124,0.0,7.0,99,0.00,,,0.77,Wunderground v.1.15,2013-06-10 03:04:00,
2013-06-09 23:09:00,68.8,68.5,29.95,East,95,2.0,7.0,99,0.00,,,0.77,Wunderground v.1.15,2013-06-10 03:09:00,
2013-06-09 23:14:00,68.8,68.5,29.95,East,92,0.0,6.0,99,0.00,,,0.77,Wunderground v.1.15,2013-06-10 03:14:00,
2013-06-09 23:19:00,68.6,68.6,29.95,ENE,77,0.0,6.0,100,0.00,,,0.77,Wunderground v.1.15,2013-06-10 03:19:00,
2013-06-09 23:24:00,68.6,68.6,29.95,ENE,70,0.0,5.0,100,0.00,,,0.77,Wunderground v.1.15,2013-06-10 03:24:00,
2013-06-09 23:29:00,68.6,68.6,29.94,ENE,75,6.0,7.0,100,0.00,,,0.77,Wunderground v.1.15,2013-06-10 03:29:00,
2013-06-09 23:34:00,68.4,68.4,29.94,ESE,102,0.0,4.0,100,0.00,,,0.77,Wunderground v.1.15,2013-06-10 03:34:00,
2013-06-09 23:39:00,68.4,68.4,29.94,WSW,243,0.0,4.0,100,0.00,,,0.77,Wunderground v.1.15,2013-06-10 03:39:00,
2013-06-09 23:44:00,68.4,68.4,29.95,SSE,151,3.0,3.0,100,0.00,,,0.77,Wunderground v.1.15,2013-06-10 03:44:00,
2013-06-09 23:49:00,68.4,68.4,29.95,SE,141,0.0,4.0,100,0.00,,,0.77,Wunderground v.1.15,2013-06-10 03:49:00,
2013-06-09 23:54:00,68.4,68.4,29.95,SE,141,0.0,0.0,100,0.00,,,0.77,Wunderground v.1.15,2013-06-10 03:54:00,
2013-06-09 23:59:00,68.4,68.4,29.94,NE,50,0.0,3.0,100,0.00,,,0.77,Wunderground v.1.15,2013-06-10 03:59:00,